This is the latest recevied weather packets stored in our database for station/object M0JUI-1. If no packets are shown the sender has not sent any weather packets the latest 10 day(s).
| Time | Temp. | Humidity | Pressure | Rain* | Wind** | Luminosity | Snow |
|---|---|---|---|---|---|---|---|
| 1788543777 | 16.67° C | 1% | 1014.4 hPa | 0 mm | - | 29 W/m² | - |
| 1788543477 | 16.67° C | 1% | 1014.5 hPa | 0 mm | - | 29 W/m² | - |
| 1788543177 | 16.67° C | 1% | 1014.2 hPa | 0 mm | - | 32 W/m² | - |
| 1788542879 | 17.22° C | 1% | 1014.3 hPa | 0 mm | - | 33 W/m² | - |
| 1788542577 | 17.22° C | 1% | 1014.1 hPa | 0 mm | - | 34 W/m² | - |
| 1788542277 | 17.22° C | 1% | 1014.1 hPa | 0 mm | - | 35 W/m² | - |
| 1788541977 | 17.22° C | 1% | 1014 hPa | 0 mm | - | 35 W/m² | - |
| 1788541677 | 17.22° C | 1% | 1014.2 hPa | 0 mm | - | 37 W/m² | - |
| 1788541377 | 17.22° C | 1% | 1014 hPa | 0 mm | - | 39 W/m² | - |
| 1788541077 | 17.22° C | 1% | 1014.1 hPa | 0 mm | - | 39 W/m² | - |
| 1788540777 | 17.22° C | 1% | 1014.1 hPa | 0 mm | - | 42 W/m² | - |
| 1788540477 | 17.22° C | 1% | 1014 hPa | 0 mm | - | 41 W/m² | - |
| 1788540177 | 17.22° C | 1% | 1013.8 hPa | 0 mm | - | 41 W/m² | - |
| 1788539877 | 17.78° C | 1% | 1013.9 hPa | 0 mm | - | 47 W/m² | - |
| 1788539578 | 17.78° C | 1% | 1014 hPa | 0 mm | - | 77 W/m² | - |
| 1788539277 | 17.78° C | 1% | 1014 hPa | 0 mm | - | 64 W/m² | - |
| 1788538977 | 17.78° C | 1% | 1013.8 hPa | 0 mm | - | 56 W/m² | - |
| 1788538677 | 17.78° C | 1% | 1014 hPa | 0 mm | - | 85 W/m² | - |
| 1788538377 | 17.22° C | 1% | 1014 hPa | 0 mm | - | 102 W/m² | - |
| 1788538077 | 17.22° C | 1% | 1013.8 hPa | 0 mm | - | 55 W/m² | - |
| 1788537778 | 17.78° C | 1% | 1014.1 hPa | 0 mm | - | 72 W/m² | - |
| 1788537477 | 17.22° C | 1% | 1014.1 hPa | 0 mm | - | 102 W/m² | - |
| 1788537177 | 17.22° C | 1% | 1013.9 hPa | 0 mm | - | 134 W/m² | - |
| 1788536877 | 16.67° C | 1% | 1013.9 hPa | 0 mm | - | 124 W/m² | - |
| 1788536577 | 17.22° C | 1% | 1014.1 hPa | 0 mm | - | 124 W/m² | - |
* Rain latest hour (hover to see other rain measurements)
** Current wind speed in m/s (hover to see current wind gust speed)